Time,TemperatureF,DewpointF,PressureIn,WindDirection,WindDirectionDegrees,WindSpeedMPH,WindSpeedGustMPH,Humidity,HourlyPrecipIn,Conditions,Clouds,dailyrainin,SolarRadiationWatts/m^2,SoftwareType,DateUTC
2013-09-29 00:00:00,38.9,31.3,30.17,North,-999,0.0,0.0,74,0.00,,,-99.99,0,WeatherLink 5.7,2013-09-29 06:00:00,
2013-09-29 00:14:00,38.5,31.3,30.17,SE,135,0.0,3.0,75,0.00,,,-99.99,0,WeatherLink 5.7,2013-09-29 06:14:00,
2013-09-29 00:24:00,38.3,31.1,30.13,North,-999,0.0,0.0,75,0.00,,,-99.99,0,WeatherLink 5.7,2013-09-29 06:24:00,
2013-09-29 00:35:00,38.0,30.8,30.15,East,90,0.0,2.0,75,0.00,,,-99.99,0,WeatherLink 5.7,2013-09-29 06:35:00,
2013-09-29 00:44:00,37.7,31.1,30.15,East,90,0.0,1.0,77,0.00,,,-99.99,0,WeatherLink 5.7,2013-09-29 06:44:00,
2013-09-29 00:54:00,37.3,31.1,30.15,East,90,0.0,1.0,78,0.00,,,-99.99,0,WeatherLink 5.7,2013-09-29 06:54:00,
2013-09-29 01:00:00,37.2,31.0,30.15,North,-999,0.0,0.0,78,0.00,,,-99.99,0,WeatherLink 5.7,2013-09-29 07:00:00,
2013-09-29 01:09:00,36.7,30.8,30.15,East,90,0.0,1.0,79,0.00,,,-99.99,0,WeatherLink 5.7,2013-09-29 07:09:00,
2013-09-29 01:20:00,36.6,31.0,30.13,East,90,0.0,1.0,80,0.00,,,-99.99,0,WeatherLink 5.7,2013-09-29 07:20:00,
2013-09-29 01:29:00,36.3,30.7,30.13,East,90,0.0,1.0,80,0.00,,,-99.99,0,WeatherLink 5.7,2013-09-29 07:29:00,
2013-09-29 01:39:00,36.3,30.7,30.15,East,90,0.0,2.0,80,0.00,,,-99.99,0,WeatherLink 5.7,2013-09-29 07:39:00,
2013-09-29 01:45:00,36.3,30.7,30.15,East,90,0.0,2.0,80,0.00,,,-99.99,0,WeatherLink 5.7,2013-09-29 07:45:00,
2013-09-29 01:54:00,36.0,30.4,30.15,East,90,0.0,2.0,80,0.00,,,-99.99,0,WeatherLink 5.7,2013-09-29 07:54:00,
2013-09-29 02:00:00,35.9,30.6,30.15,East,90,0.0,1.0,81,0.00,,,-99.99,0,WeatherLink 5.7,2013-09-29 08:00:00,
2013-09-29 02:09:00,35.6,30.3,30.15,North,-999,0.0,0.0,81,0.00,,,-99.99,0,WeatherLink 5.7,2013-09-29 08:09:00,
2013-09-29 02:14:00,35.3,30.4,30.15,East,90,0.0,1.0,82,0.00,,,-99.99,0,WeatherLink 5.7,2013-09-29 08:14:00,
2013-09-29 02:19:00,35.3,30.4,30.13,East,90,0.0,3.0,82,0.00,,,-99.99,0,WeatherLink 5.7,2013-09-29 08:19:00,
2013-09-29 02:30:00,35.2,30.6,30.13,East,90,0.0,2.0,83,0.00,,,-99.99,0,WeatherLink 5.7,2013-09-29 08:30:00,
2013-09-29 02:39:00,35.0,30.4,30.13,East,90,2.0,4.0,83,0.00,,,-99.99,0,WeatherLink 5.7,2013-09-29 08:39:00,
2013-09-29 02:49:00,34.7,30.4,30.13,ENE,67,0.0,1.0,84,0.00,,,-99.99,0,WeatherLink 5.7,2013-09-29 08:49:00,
2013-09-29 03:00:00,34.6,30.3,30.13,North,-999,0.0,0.0,84,0.00,,,-99.99,0,WeatherLink 5.7,2013-09-29 09:00:00,
2013-09-29 03:09:00,34.3,30.3,30.14,ENE,67,0.0,2.0,85,0.00,,,-99.99,0,WeatherLink 5.7,2013-09-29 09:09:00,
2013-09-29 03:19:00,34.0,30.0,30.14,ENE,67,0.0,2.0,85,0.00,,,-99.99,0,WeatherLink 5.7,2013-09-29 09:19:00,
2013-09-29 03:25:00,34.0,30.3,30.14,ENE,67,0.0,1.0,86,0.00,,,-99.99,0,WeatherLink 5.7,2013-09-29 09:25:00,
2013-09-29 03:34:00,34.0,30.3,30.14,ENE,67,0.0,3.0,86,0.00,,,-99.99,0,WeatherLink 5.7,2013-09-29 09:34:00,
2013-09-29 03:39:00,34.0,30.3,30.14,East,90,1.0,4.0,86,0.00,,,-99.99,0,WeatherLink 5.7,2013-09-29 09:39:00,
2013-09-29 03:45:00,33.8,30.1,30.14,East,90,0.0,3.0,86,0.00,,,-99.99,0,WeatherLink 5.7,2013-09-29 09:45:00,
2013-09-29 03:54:00,33.7,30.0,30.14,North,-999,0.0,0.0,86,0.00,,,-99.99,0,WeatherLink 5.7,2013-09-29 09:54:00,
2013-09-29 04:00:00,33.5,29.8,30.14,North,-999,0.0,0.0,86,0.00,,,-99.99,0,WeatherLink 5.7,2013-09-29 10:00:00,
2013-09-29 04:09:00,33.5,29.8,30.14,North,-999,0.0,0.0,86,0.00,,,-99.99,0,WeatherLink 5.7,2013-09-29 10:09:00,
2013-09-29 04:14:00,33.4,29.7,30.14,East,90,1.0,3.0,86,0.00,,,-99.99,0,WeatherLink 5.7,2013-09-29 10:14:00,
2013-09-29 04:25:00,33.2,29.5,30.15,North,-999,0.0,0.0,86,0.00,,,-99.99,0,WeatherLink 5.7,2013-09-29 10:25:00,
2013-09-29 04:34:00,33.1,29.4,30.15,East,90,0.0,1.0,86,0.00,,,-99.99,0,WeatherLink 5.7,2013-09-29 10:34:00,
2013-09-29 04:45:00,32.9,29.5,30.15,East,90,1.0,3.0,87,0.00,,,-99.99,0,WeatherLink 5.7,2013-09-29 10:45:00,
2013-09-29 04:54:00,32.9,29.5,30.15,East,90,1.0,3.0,87,0.00,,,-99.99,0,WeatherLink 5.7,2013-09-29 10:54:00,
2013-09-29 05:00:00,32.8,29.4,30.15,North,-999,0.0,0.0,87,0.00,,,-99.99,0,WeatherLink 5.7,2013-09-29 11:00:00,
2013-09-29 05:09:00,32.6,29.2,30.15,North,-999,0.0,0.0,87,0.00,,,-99.99,0,WeatherLink 5.7,2013-09-29 11:09:00,
2013-09-29 05:19:00,32.5,29.1,30.16,East,90,0.0,2.0,87,0.00,,,-99.99,0,WeatherLink 5.7,2013-09-29 11:19:00,
2013-09-29 05:24:00,32.5,29.1,30.16,North,-999,0.0,0.0,87,0.00,,,-99.99,0,WeatherLink 5.7,2013-09-29 11:24:00,
2013-09-29 05:34:00,32.4,29.0,30.16,North,-999,0.0,0.0,87,0.00,,,-99.99,0,WeatherLink 5.7,2013-09-29 11:34:00,
2013-09-29 05:44:00,32.4,29.0,30.16,ESE,112,0.0,3.0,87,0.00,,,-99.99,0,WeatherLink 5.7,2013-09-29 11:44:00,
2013-09-29 05:49:00,32.2,28.8,30.16,North,-999,0.0,0.0,87,0.00,,,-99.99,0,WeatherLink 5.7,2013-09-29 11:49:00,
2013-09-29 05:54:00,32.2,28.8,30.16,North,-999,0.0,0.0,87,0.00,,,-99.99,0,WeatherLink 5.7,2013-09-29 11:54:00,
2013-09-29 06:00:00,32.1,28.7,30.16,North,-999,0.0,0.0,87,0.00,,,-99.99,0,WeatherLink 5.7,2013-09-29 12:00:00,
2013-09-29 06:09:00,31.9,28.5,30.16,East,90,0.0,3.0,87,0.00,,,-99.99,0,WeatherLink 5.7,2013-09-29 12:09:00,
2013-09-29 06:15:00,31.9,28.5,30.16,East,90,0.0,3.0,87,0.00,,,-99.99,0,WeatherLink 5.7,2013-09-29 12:15:00,
2013-09-29 06:24:00,31.8,28.4,30.19,East,90,0.0,1.0,87,0.00,,,-99.99,0,WeatherLink 5.7,2013-09-29 12:24:00,
2013-09-29 06:34:00,31.8,28.4,30.19,ENE,67,2.0,3.0,87,0.00,,,-99.99,0,WeatherLink 5.7,2013-09-29 12:34:00,
2013-09-29 06:39:00,31.8,28.4,30.19,East,90,0.0,2.0,87,0.00,,,-99.99,0,WeatherLink 5.7,2013-09-29 12:39:00,
2013-09-29 06:49:00,31.6,28.2,30.20,North,-999,0.0,0.0,87,0.00,,,-99.99,0,WeatherLink 5.7,2013-09-29 12:49:00,
2013-09-29 06:54:00,31.5,28.4,30.20,North,-999,0.0,0.0,88,0.00,,,-99.99,0,WeatherLink 5.7,2013-09-29 12:54:00,
2013-09-29 07:00:00,31.5,28.4,30.20,North,-999,0.0,0.0,88,0.00,,,-99.99,0,WeatherLink 5.7,2013-09-29 13:00:00,
2013-09-29 07:09:00,31.5,28.4,30.21,North,-999,0.0,0.0,88,0.00,,,-99.99,0,WeatherLink 5.7,2013-09-29 13:09:00,
2013-09-29 07:19:00,31.5,28.4,30.22,ESE,112,0.0,3.0,88,0.00,,,-99.99,8,WeatherLink 5.7,2013-09-29 13:19:00,
2013-09-29 07:25:00,31.3,28.2,30.22,ESE,112,0.0,2.0,88,0.00,,,-99.99,9,WeatherLink 5.7,2013-09-29 13:25:00,
2013-09-29 07:34:00,31.3,28.2,30.24,ESE,112,0.0,2.0,88,0.00,,,-99.99,12,WeatherLink 5.7,2013-09-29 13:34:00,
2013-09-29 07:44:00,31.3,28.2,30.24,North,-999,0.0,0.0,88,0.00,,,-99.99,14,WeatherLink 5.7,2013-09-29 13:44:00,
2013-09-29 07:49:00,31.3,28.2,30.24,East,90,0.0,3.0,88,0.00,,,-99.99,14,WeatherLink 5.7,2013-09-29 13:49:00,
2013-09-29 08:00:00,31.2,28.1,30.24,East,90,1.0,3.0,88,0.00,,,-99.99,14,WeatherLink 5.7,2013-09-29 14:00:00,
2013-09-29 08:09:00,31.3,28.2,30.24,East,90,1.0,4.0,88,0.00,,,-99.99,25,WeatherLink 5.7,2013-09-29 14:09:00,
2013-09-29 08:14:00,31.9,29.0,30.24,East,90,2.0,4.0,89,0.00,,,-99.99,143,WeatherLink 5.7,2013-09-29 14:14:00,
2013-09-29 08:25:00,33.1,29.9,30.24,East,90,2.0,6.0,88,0.00,,,-99.99,214,WeatherLink 5.7,2013-09-29 14:25:00,
2013-09-29 08:34:00,34.1,30.4,30.23,East,90,2.0,5.0,86,0.00,,,-99.99,241,WeatherLink 5.7,2013-09-29 14:34:00,
2013-09-29 08:39:00,34.4,30.4,30.23,East,90,3.0,6.0,85,0.00,,,-99.99,263,WeatherLink 5.7,2013-09-29 14:39:00,
2013-09-29 08:49:00,35.9,30.9,30.22,East,90,2.0,5.0,82,0.00,,,-99.99,297,WeatherLink 5.7,2013-09-29 14:49:00,
2013-09-29 08:54:00,36.7,30.8,30.22,East,90,3.0,5.0,79,0.00,,,-99.99,315,WeatherLink 5.7,2013-09-29 14:54:00,
2013-09-29 09:00:00,37.3,30.7,30.22,East,90,4.0,7.0,77,0.00,,,-99.99,334,WeatherLink 5.7,2013-09-29 15:00:00,
2013-09-29 09:09:00,38.6,31.0,30.20,ESE,112,1.0,5.0,74,0.00,,,-99.99,382,WeatherLink 5.7,2013-09-29 15:09:00,
2013-09-29 09:19:00,39.8,30.8,30.20,East,90,2.0,6.0,70,0.00,,,-99.99,418,WeatherLink 5.7,2013-09-29 15:19:00,
2013-09-29 09:25:00,40.0,31.0,30.20,East,90,3.0,7.0,70,0.00,,,-99.99,425,WeatherLink 5.7,2013-09-29 15:25:00,
2013-09-29 09:30:00,40.8,30.7,30.20,East,90,1.0,6.0,67,0.00,,,-99.99,434,WeatherLink 5.7,2013-09-29 15:30:00,
2013-09-29 09:39:00,42.2,30.9,30.19,SE,135,0.0,1.0,64,0.00,,,-99.99,472,WeatherLink 5.7,2013-09-29 15:39:00,
2013-09-29 09:44:00,42.9,30.8,30.19,ESE,112,0.0,1.0,62,0.00,,,-99.99,486,WeatherLink 5.7,2013-09-29 15:44:00,
2013-09-29 09:50:00,43.6,31.4,30.17,SE,135,0.0,6.0,62,0.00,,,-99.99,506,WeatherLink 5.7,2013-09-29 15:50:00,
2013-09-29 10:00:00,45.7,32.2,30.17,East,90,0.0,3.0,59,0.00,,,-99.99,540,WeatherLink 5.7,2013-09-29 16:00:00,
2013-09-29 10:09:00,46.2,32.7,30.15,East,90,0.0,4.0,59,0.00,,,-99.99,568,WeatherLink 5.7,2013-09-29 16:09:00,
2013-09-29 10:19:00,47.6,32.7,30.13,ESE,112,1.0,3.0,56,0.00,,,-99.99,597,WeatherLink 5.7,2013-09-29 16:19:00,
2013-09-29 10:24:00,48.0,32.6,30.13,ESE,112,0.0,3.0,55,0.00,,,-99.99,610,WeatherLink 5.7,2013-09-29 16:24:00,
2013-09-29 10:30:00,48.5,32.1,30.13,East,90,1.0,5.0,53,0.00,,,-99.99,623,WeatherLink 5.7,2013-09-29 16:30:00,
2013-09-29 10:39:00,49.3,31.4,30.10,ESE,112,2.0,5.0,50,0.00,,,-99.99,647,WeatherLink 5.7,2013-09-29 16:39:00,
2013-09-29 10:45:00,49.9,32.0,30.10,ESE,112,1.0,5.0,50,0.00,,,-99.99,659,WeatherLink 5.7,2013-09-29 16:45:00,
2013-09-29 10:54:00,51.0,33.0,30.11,East,90,0.0,2.0,50,0.00,,,-99.99,681,WeatherLink 5.7,2013-09-29 16:54:00,
2013-09-29 11:00:00,51.7,32.6,30.11,SE,135,0.0,6.0,48,0.00,,,-99.99,691,WeatherLink 5.7,2013-09-29 17:00:00,
2013-09-29 11:09:00,52.2,32.6,30.07,East,90,0.0,2.0,47,0.00,,,-99.99,713,WeatherLink 5.7,2013-09-29 17:09:00,
2013-09-29 11:19:00,53.8,35.1,30.06,SE,135,0.0,3.0,49,0.00,,,-99.99,733,WeatherLink 5.7,2013-09-29 17:19:00,
2013-09-29 11:29:00,54.1,30.9,30.06,East,90,0.0,4.0,41,0.00,,,-99.99,753,WeatherLink 5.7,2013-09-29 17:29:00,
2013-09-29 11:39:00,54.5,28.7,30.06,East,90,0.0,3.0,37,0.00,,,-99.99,769,WeatherLink 5.7,2013-09-29 17:39:00,
2013-09-29 11:45:00,55.1,33.6,30.06,ESE,112,0.0,3.0,44,0.00,,,-99.99,775,WeatherLink 5.7,2013-09-29 17:45:00,
2013-09-29 11:54:00,56.0,29.4,30.03,East,90,0.0,2.0,36,0.00,,,-99.99,789,WeatherLink 5.7,2013-09-29 17:54:00,
2013-09-29 12:00:00,57.3,31.9,30.03,East,90,0.0,1.0,38,0.00,,,-99.99,796,WeatherLink 5.7,2013-09-29 18:00:00,
2013-09-29 12:09:00,58.0,30.5,30.00,North,0,0.0,1.0,35,0.00,,,-99.99,807,WeatherLink 5.7,2013-09-29 18:09:00,
2013-09-29 12:19:00,58.6,31.0,30.00,NNW,337,0.0,4.0,35,0.00,,,-99.99,814,WeatherLink 5.7,2013-09-29 18:19:00,
2013-09-29 12:29:00,60.1,29.3,30.00,NNW,337,0.0,5.0,31,0.00,,,-99.99,821,WeatherLink 5.7,2013-09-29 18:29:00,
2013-09-29 12:39:00,61.0,30.1,29.99,NW,315,0.0,4.0,31,0.00,,,-99.99,826,WeatherLink 5.7,2013-09-29 18:39:00,
2013-09-29 12:50:00,61.8,29.2,29.96,NNW,337,0.0,2.0,29,0.00,,,-99.99,830,WeatherLink 5.7,2013-09-29 18:50:00,
2013-09-29 13:00:00,62.3,29.6,29.96,NNW,337,0.0,4.0,29,0.00,,,-99.99,831,WeatherLink 5.7,2013-09-29 19:00:00,
2013-09-29 13:09:00,62.9,30.1,29.95,NNW,337,0.0,4.0,29,0.00,,,-99.99,832,WeatherLink 5.7,2013-09-29 19:09:00,
2013-09-29 13:19:00,62.9,28.4,29.95,NNW,337,3.0,10.0,27,0.00,,,-99.99,832,WeatherLink 5.7,2013-09-29 19:19:00,
2013-09-29 13:29:00,62.6,29.0,29.95,NNW,337,4.0,16.0,28,0.00,,,-99.99,829,WeatherLink 5.7,2013-09-29 19:29:00,
2013-09-29 13:40:00,62.8,30.0,29.94,NW,315,4.0,13.0,29,0.00,,,-99.99,823,WeatherLink 5.7,2013-09-29 19:40:00,
2013-09-29 13:49:00,63.4,29.7,29.93,NNW,337,3.0,11.0,28,0.00,,,-99.99,818,WeatherLink 5.7,2013-09-29 19:49:00,
2013-09-29 14:00:00,63.7,30.0,29.93,NNW,337,4.0,12.0,28,0.00,,,-99.99,812,WeatherLink 5.7,2013-09-29 20:00:00,
2013-09-29 14:09:00,63.7,30.0,29.91,NNW,337,4.0,11.0,28,0.00,,,-99.99,803,WeatherLink 5.7,2013-09-29 20:09:00,
2013-09-29 14:14:00,64.2,29.5,29.91,NNW,337,5.0,12.0,27,0.00,,,-99.99,798,WeatherLink 5.7,2013-09-29 20:14:00,
2013-09-29 14:19:00,64.0,29.3,29.91,NNW,337,5.0,12.0,27,0.00,,,-99.99,791,WeatherLink 5.7,2013-09-29 20:19:00,
2013-09-29 14:34:00,64.7,29.0,29.91,NNW,337,4.0,10.0,26,0.00,,,-99.99,771,WeatherLink 5.7,2013-09-29 20:34:00,
2013-09-29 14:40:00,64.4,29.7,29.91,NNW,337,4.0,17.0,27,0.00,,,-99.99,699,WeatherLink 5.7,2013-09-29 20:40:00,
2013-09-29 14:49:00,65.3,27.5,29.91,NNW,337,3.0,16.0,24,0.00,,,-99.99,680,WeatherLink 5.7,2013-09-29 20:49:00,
2013-09-29 15:00:00,65.2,29.4,29.91,NNW,337,2.0,10.0,26,0.00,,,-99.99,551,WeatherLink 5.7,2013-09-29 21:00:00,
2013-09-29 15:10:00,64.2,28.6,29.91,NW,315,1.0,8.0,26,0.00,,,-99.99,341,WeatherLink 5.7,2013-09-29 21:10:00,
2013-09-29 15:19:00,65.0,28.3,29.91,NW,315,1.0,4.0,25,0.00,,,-99.99,478,WeatherLink 5.7,2013-09-29 21:19:00,
2013-09-29 15:29:00,65.8,28.0,29.91,NNW,337,1.0,5.0,24,0.00,,,-99.99,669,WeatherLink 5.7,2013-09-29 21:29:00,
2013-09-29 15:34:00,65.5,29.7,29.89,NNW,337,1.0,7.0,26,0.00,,,-99.99,459,WeatherLink 5.7,2013-09-29 21:34:00,
2013-09-29 15:44:00,65.8,29.0,29.89,NNW,337,2.0,11.0,25,0.00,,,-99.99,628,WeatherLink 5.7,2013-09-29 21:44:00,
2013-09-29 15:50:00,66.1,28.2,29.89,NNW,337,1.0,7.0,24,0.00,,,-99.99,614,WeatherLink 5.7,2013-09-29 21:50:00,
2013-09-29 16:00:00,66.5,30.5,29.89,North,0,0.0,5.0,26,0.00,,,-99.99,588,WeatherLink 5.7,2013-09-29 22:00:00,
2013-09-29 16:09:00,65.5,28.7,29.89,NNW,337,1.0,4.0,25,0.00,,,-99.99,348,WeatherLink 5.7,2013-09-29 22:09:00,
2013-09-29 16:19:00,65.2,29.4,29.91,NNW,337,1.0,7.0,26,0.00,,,-99.99,499,WeatherLink 5.7,2013-09-29 22:19:00,
2013-09-29 16:25:00,65.0,29.2,29.91,NNW,337,2.0,7.0,26,0.00,,,-99.99,445,WeatherLink 5.7,2013-09-29 22:25:00,
2013-09-29 16:34:00,64.7,29.9,29.90,NNW,337,0.0,4.0,27,0.00,,,-99.99,497,WeatherLink 5.7,2013-09-29 22:34:00,
2013-09-29 16:44:00,65.3,30.4,29.90,NNW,337,0.0,4.0,27,0.00,,,-99.99,452,WeatherLink 5.7,2013-09-29 22:44:00,
2013-09-29 16:49:00,65.2,28.5,29.90,NNW,337,1.0,4.0,25,0.00,,,-99.99,456,WeatherLink 5.7,2013-09-29 22:49:00,
2013-09-29 16:55:00,64.9,30.1,29.90,NW,315,1.0,5.0,27,0.00,,,-99.99,351,WeatherLink 5.7,2013-09-29 22:55:00,
2013-09-29 17:00:00,64.7,29.9,29.90,NW,315,1.0,7.0,27,0.00,,,-99.99,163,WeatherLink 5.7,2013-09-29 23:00:00,
2013-09-29 17:09:00,63.7,29.1,29.90,NW,315,0.0,1.0,27,0.00,,,-99.99,152,WeatherLink 5.7,2013-09-29 23:09:00,
2013-09-29 17:19:00,62.8,29.2,29.91,NW,315,0.0,2.0,28,0.00,,,-99.99,71,WeatherLink 5.7,2013-09-29 23:19:00,
2013-09-29 17:25:00,62.1,28.6,29.91,NNW,337,0.0,3.0,28,0.00,,,-99.99,53,WeatherLink 5.7,2013-09-29 23:25:00,
2013-09-29 17:34:00,61.8,30.0,29.91,WNW,292,0.0,1.0,30,0.00,,,-99.99,153,WeatherLink 5.7,2013-09-29 23:34:00,
2013-09-29 17:39:00,61.8,30.0,29.91,WNW,292,0.0,1.0,30,0.00,,,-99.99,65,WeatherLink 5.7,2013-09-29 23:39:00,
2013-09-29 17:49:00,61.2,30.3,29.92,West,270,0.0,1.0,31,0.00,,,-99.99,27,WeatherLink 5.7,2013-09-29 23:49:00,
2013-09-29 18:00:00,60.4,28.8,29.92,NNW,337,0.0,2.0,30,0.00,,,-99.99,23,WeatherLink 5.7,2013-09-30 00:00:00,
2013-09-29 18:09:00,60.1,30.1,29.92,North,-999,0.0,0.0,32,0.00,,,-99.99,13,WeatherLink 5.7,2013-09-30 00:09:00,
2013-09-29 18:19:00,59.2,34.2,29.93,North,-999,0.0,0.0,39,0.00,,,-99.99,11,WeatherLink 5.7,2013-09-30 00:19:00,
2013-09-29 18:29:00,57.5,32.7,29.93,North,-999,0.0,0.0,39,0.00,,,-99.99,9,WeatherLink 5.7,2013-09-30 00:29:00,
2013-09-29 18:35:00,56.6,34.3,29.95,North,-999,0.0,0.0,43,0.00,,,-99.99,8,WeatherLink 5.7,2013-09-30 00:35:00,
2013-09-29 18:39:00,56.2,34.0,29.95,North,-999,0.0,0.0,43,0.00,,,-99.99,7,WeatherLink 5.7,2013-09-30 00:39:00,
2013-09-29 18:49:00,55.6,33.4,29.95,NNW,337,0.0,1.0,43,0.00,,,-99.99,3,WeatherLink 5.7,2013-09-30 00:49:00,
2013-09-29 18:54:00,55.4,32.7,29.95,North,-999,0.0,0.0,42,0.00,,,-99.99,0,WeatherLink 5.7,2013-09-30 00:54:00,
2013-09-29 19:00:00,55.1,32.4,29.95,NNW,337,0.0,1.0,42,0.00,,,-99.99,0,WeatherLink 5.7,2013-09-30 01:00:00,
2013-09-29 19:10:00,54.8,31.5,29.97,North,0,0.0,2.0,41,0.00,,,-99.99,0,WeatherLink 5.7,2013-09-30 01:10:00,
2013-09-29 19:20:00,55.3,31.4,29.96,SW,225,0.0,3.0,40,0.00,,,-99.99,0,WeatherLink 5.7,2013-09-30 01:20:00,
2013-09-29 19:29:00,55.3,31.4,29.96,North,-999,0.0,0.0,40,0.00,,,-99.99,0,WeatherLink 5.7,2013-09-30 01:29:00,
2013-09-29 19:34:00,55.4,30.2,29.96,SW,225,0.0,2.0,38,0.00,,,-99.99,0,WeatherLink 5.7,2013-09-30 01:34:00,
2013-09-29 19:44:00,55.9,30.0,29.96,WSW,247,1.0,5.0,37,0.00,,,-99.99,0,WeatherLink 5.7,2013-09-30 01:44:00,
2013-09-29 19:55:00,55.4,30.8,29.96,SE,135,0.0,2.0,39,0.00,,,-99.99,0,WeatherLink 5.7,2013-09-30 01:55:00,
2013-09-29 20:00:00,54.8,31.5,29.96,East,90,0.0,3.0,41,0.00,,,-99.99,0,WeatherLink 5.7,2013-09-30 02:00:00,
2013-09-29 20:09:00,54.1,31.5,29.98,North,-999,0.0,0.0,42,0.00,,,-99.99,0,WeatherLink 5.7,2013-09-30 02:09:00,
2013-09-29 20:20:00,52.9,32.1,29.94,North,-999,0.0,0.0,45,0.00,,,-99.99,0,WeatherLink 5.7,2013-09-30 02:20:00,
2013-09-29 20:29:00,51.9,31.7,29.94,North,-999,0.0,0.0,46,0.00,,,-99.99,0,WeatherLink 5.7,2013-09-30 02:29:00,
2013-09-29 20:39:00,51.6,32.0,29.94,East,90,0.0,1.0,47,0.00,,,-99.99,0,WeatherLink 5.7,2013-09-30 02:39:00,
2013-09-29 20:44:00,51.0,32.0,29.94,East,90,0.0,2.0,48,0.00,,,-99.99,0,WeatherLink 5.7,2013-09-30 02:44:00,
2013-09-29 20:54:00,50.2,31.8,29.96,East,90,0.0,1.0,49,0.00,,,-99.99,0,WeatherLink 5.7,2013-09-30 02:54:00,
2013-09-29 21:00:00,49.9,31.5,29.96,North,-999,0.0,0.0,49,0.00,,,-99.99,0,WeatherLink 5.7,2013-09-30 03:00:00,
2013-09-29 21:09:00,49.8,31.4,29.95,East,90,0.0,1.0,49,0.00,,,-99.99,0,WeatherLink 5.7,2013-09-30 03:09:00,
2013-09-29 21:20:00,49.6,31.7,29.91,East,90,0.0,2.0,50,0.00,,,-99.99,0,WeatherLink 5.7,2013-09-30 03:20:00,
2013-09-29 21:25:00,49.5,31.6,29.91,North,-999,0.0,0.0,50,0.00,,,-99.99,0,WeatherLink 5.7,2013-09-30 03:25:00,
2013-09-29 21:39:00,48.9,32.0,29.93,North,-999,0.0,0.0,52,0.00,,,-99.99,0,WeatherLink 5.7,2013-09-30 03:39:00,
2013-09-29 21:45:00,48.2,31.9,29.93,North,-999,0.0,0.0,53,0.00,,,-99.99,0,WeatherLink 5.7,2013-09-30 03:45:00,
2013-09-29 21:54:00,47.9,32.5,29.93,North,-999,0.0,0.0,55,0.00,,,-99.99,0,WeatherLink 5.7,2013-09-30 03:54:00,
2013-09-29 22:00:00,47.4,32.5,29.93,North,-999,0.0,0.0,56,0.00,,,-99.99,0,WeatherLink 5.7,2013-09-30 04:00:00,
2013-09-29 22:04:00,47.1,32.6,29.96,North,-999,0.0,0.0,57,0.00,,,-99.99,0,WeatherLink 5.7,2013-09-30 04:04:00,
2013-09-29 22:14:00,46.8,32.8,29.96,North,-999,0.0,0.0,58,0.00,,,-99.99,0,WeatherLink 5.7,2013-09-30 04:14:00,
2013-09-29 22:30:00,46.8,32.8,29.92,North,-999,0.0,0.0,58,0.00,,,-99.99,0,WeatherLink 5.7,2013-09-30 04:30:00,
2013-09-29 22:35:00,46.5,33.4,29.92,North,-999,0.0,0.0,60,0.00,,,-99.99,0,WeatherLink 5.7,2013-09-30 04:35:00,
2013-09-29 22:45:00,46.2,33.9,29.92,North,-999,0.0,0.0,62,0.00,,,-99.99,0,WeatherLink 5.7,2013-09-30 04:45:00,
2013-09-29 22:55:00,45.9,33.6,29.92,North,-999,0.0,0.0,62,0.00,,,-99.99,0,WeatherLink 5.7,2013-09-30 04:55:00,
2013-09-29 23:00:00,45.8,33.9,29.92,North,-999,0.0,0.0,63,0.00,,,-99.99,0,WeatherLink 5.7,2013-09-30 05:00:00,
2013-09-29 23:10:00,45.7,33.4,29.93,North,-999,0.0,0.0,62,0.00,,,-99.99,0,WeatherLink 5.7,2013-09-30 05:10:00,
2013-09-29 23:20:00,45.4,33.9,29.91,East,90,0.0,2.0,64,0.00,,,-99.99,0,WeatherLink 5.7,2013-09-30 05:20:00,
2013-09-29 23:30:00,44.8,34.1,29.91,ENE,67,1.0,3.0,66,0.00,,,-99.99,0,WeatherLink 5.7,2013-09-30 05:30:00,
2013-09-29 23:40:00,44.6,33.9,29.91,North,-999,0.0,0.0,66,0.00,,,-99.99,0,WeatherLink 5.7,2013-09-30 05:40:00,
2013-09-29 23:50:00,44.5,33.5,29.91,ENE,67,0.0,1.0,65,0.00,,,-99.99,0,WeatherLink 5.7,2013-09-30 05:50:00,